Apalachicola, FL

8:33 AM EST on February 24, 2017 (GMT -0500)
Apalachicola Municipal

Weather History for KAAF - June, 2012

Change the Weather History Date:

Wednesday, June 20, 2012

  Actual Average Record
Temperature  
Mean Temperature 81 °F 81 °F  
Max Temperature 88 °F 89 °F 98 °F (1998)
Min Temperature 73 °F 72 °F 67 °F (1965)
Degree Days  
Heating Degree Days 0    
Month to date heating degree days 0  
Since 1 June heating degree days 0  
Since 1 July heating degree days 846  
Cooling Degree Days 16    
Month to date cooling degree days 295  
Year to date cooling degree days 926  
Since 1 June cooling degree days 295  
Growing Degree Days 30 (Base 50)    
Moisture  
Dew Point 67 °F    
Average Humidity 63    
Maximum Humidity 79    
Minimum Humidity 46    
Precipitation  
Precipitation 0.00 in 0.20 in 4.74 in (2003)
Month to date precipitation 8.93 3.24  
Year to date precipitation 18.85 22.62  
Sea Level Pressure  
Sea Level Pressure 30.03 in    
Wind  
Wind Speed 10 mph (East)    
Max Wind Speed 18 mph    
Max Gust Speed 24 mph    
Visibility 10 miles    
Events      
T = Trace of Precipitation, MM = Missing Value Source: NWS Daily Summary

Daily Weather History Graph

Daily Weather History Graph

Search for Another Location

Airport or City:

Trip Planner

Search our weather history database for the weather conditions in past years. The results will help you decide how hot, cold, wet, or windy it might be!

Date:

Astronomy

Jun. 20, 2012 Rise Set
Actual Time 6:40 AM EDT 8:43 PM EDT
Civil Twilight 6:12 AM EDT 9:10 PM EDT
Nautical Twilight 5:39 AM EDT 9:44 PM EDT
Astronomical Twilight 5:03 AM EDT 10:19 PM EDT
Moon 7:34 AM EDT (6/20) 9:35 PM EDT (6/20)
Length of Visible Light 14h 58m
Length of Day
14h 03m
New Moon, 1% of the Moon is Illuminated
Jun 20
New Moon
Jun 26
First Quarter
Jul 3
Full
Jul 10
Last Quarter
Jul 19
New

Hourly Weather History & Observations

Time (EDT) Temp. Heat Index Dew Point Humidity Pressure Visibility Wind Dir Wind Speed Gust Speed Precip Events Conditions
12:53 AM 81.0 °F 84.1 °F 69.1 °F 67% 30.06 in 10.0 mi SE 6.9 mph - N/A   Clear
1:53 AM 81.0 °F 83.8 °F 68.0 °F 65% 30.06 in 10.0 mi ESE 11.5 mph - N/A   Clear
2:53 AM 79.0 °F - 66.9 °F 66% 30.05 in 10.0 mi ESE 9.2 mph - N/A   Partly Cloudy
3:24 AM 78.8 °F - 66.2 °F 65% 30.05 in 10.0 mi East 11.5 mph 18.4 mph N/A   Mostly Cloudy
3:39 AM 78.8 °F - 66.2 °F 65% 30.05 in 10.0 mi ESE 10.4 mph 19.6 mph N/A   Mostly Cloudy
3:53 AM 79.0 °F - 66.0 °F 64% 30.05 in 10.0 mi ESE 11.5 mph 19.6 mph N/A   Partly Cloudy
4:53 AM 78.1 °F - 66.9 °F 68% 30.04 in 10.0 mi ESE 8.1 mph 18.4 mph N/A   Scattered Clouds
5:53 AM 78.1 °F - 66.0 °F 66% 30.04 in 10.0 mi East 9.2 mph 19.6 mph N/A   Scattered Clouds
6:53 AM 78.1 °F - 66.9 °F 68% 30.04 in 10.0 mi East 6.9 mph 17.3 mph N/A   Partly Cloudy
7:53 AM 73.9 °F - 66.9 °F 79% 30.05 in 10.0 mi NNE 8.1 mph - N/A   Mostly Cloudy
8:53 AM 78.1 °F - 69.1 °F 74% 30.06 in 10.0 mi ENE 9.2 mph - N/A   Scattered Clouds
9:53 AM 80.1 °F 82.9 °F 69.1 °F 69% 30.06 in 10.0 mi NE 10.4 mph - N/A   Partly Cloudy
10:53 AM 81.0 °F 83.8 °F 68.0 °F 65% 30.06 in 10.0 mi East 10.4 mph 20.7 mph N/A   Partly Cloudy
11:53 AM 82.9 °F 86.5 °F 69.1 °F 63% 30.06 in 10.0 mi East 12.7 mph - N/A   Scattered Clouds
12:53 PM 82.4 °F 85.4 °F 68.0 °F 62% 30.06 in 10.0 mi East 15.0 mph 19.6 mph N/A   Partly Cloudy
1:53 PM 84.0 °F 87.0 °F 68.0 °F 58% 30.06 in 10.0 mi East 13.8 mph 21.9 mph N/A   Clear
2:53 PM 84.0 °F 87.0 °F 68.0 °F 58% 30.04 in 10.0 mi ESE 15.0 mph - N/A   Clear
3:53 PM 84.0 °F 87.0 °F 68.0 °F 58% 30.02 in 10.0 mi East 10.4 mph 20.7 mph N/A   Clear
4:53 PM 87.1 °F 89.9 °F 66.9 °F 51% 30.00 in 10.0 mi East 10.4 mph 19.6 mph N/A   Clear
5:53 PM 87.1 °F 88.9 °F 64.9 °F 48% 29.99 in 10.0 mi East 10.4 mph - N/A   Clear
6:53 PM 88.0 °F 89.6 °F 64.9 °F 46% 29.98 in 10.0 mi East 11.5 mph - N/A   Clear
7:53 PM 86.0 °F 87.6 °F 64.9 °F 49% 29.98 in 10.0 mi East 6.9 mph - N/A   Clear
8:53 PM 82.9 °F 85.0 °F 66.0 °F 56% 29.98 in 10.0 mi ENE 6.9 mph - N/A   Clear
9:53 PM 80.1 °F 82.3 °F 66.9 °F 64% 29.99 in 10.0 mi ENE 4.6 mph - N/A   Clear
10:53 PM 79.0 °F - 66.9 °F 66% 30.00 in 10.0 mi ENE 6.9 mph - N/A   Clear
11:53 PM 82.0 °F 85.5 °F 69.1 °F 65% 30.01 in 10.0 mi East 16.1 mph 23.0 mph N/A   Partly Cloudy